{"data":{"norad_id":67832,"epoch":"2026-09-19T00:54:24.169536Z","epoch_age_seconds":192825,"freshness":"STALE","line1":"1 67832U 26033M   26262.03777974  .00017743  00000+0  65257-3 0  9991","line2":"2 67832  42.9990 248.1067 0001283 263.0965  96.9740 15.27588428 34321","mean_motion":15.27588428,"eccentricity":0.0001283,"inclination_deg":42.999,"raan_deg":248.1067,"arg_perigee_deg":263.0965,"mean_anomaly_deg":96.974,"bstar":0.00065257,"rev_number":3432,"period_min":94.266228625817,"perigee_km":482.14357275343,"apogee_km":483.90414663002,"semimajor_km":6861.1608596917,"source":"CELESTRAK","updated_at":"2026-09-20T09:00:43.669307Z"}}